RH
79 78 94 86 97 95 95 90 73 62 63 62 77 79 56 63 57 57 72 66 70 71 78 75 45 52 51 57 56 62 60 59 51 51 59 64 64 58 57 52 47 47 46 46
78 79 82 95 95 97 98 94 80 67 57 74 63 60 57 62 79 69 69 68 65 67 69 74 59 48 50 52 57 62 66 64 62 58 55 56 63 69 69 65 61 56 56 55
90 93 97 98 94 98 97 96 90 75 61 81 72 77 74 59 67 65 66 65 61 61 65 72 75 41 48 49 48 51 61 66 69 66 70 70 75 66 70 75 74 79 70 67
77 73 96 97 96 93 97 85 90 94 66 98 96 86 74 68 74 70 67 67 61 60 63 69 73 70 41 48 50 52 50 58 66 75 72 75 88 81 86 99 96 86 86 87
93 96 98 99 86 94 93 90 84 93 79 77 82 75 71 64 63 64 66 68 64 62 60 63 70 75 80 54 41 54 56 54 60 70 86 80 81 86 89 95 99 90 81 84
96 92 98 91 96 96 93 98 87 99 91 98 81 66 44 48 52 50 60 64 64 55 58 50 74 76 81 58 52 58 62 70 71 76 81 95 91 70 91 92 96 96 85 81
99 96 91 88 82 92 98 98 99 98 98 88 62 63 39 32 46 50 52 60 54 57 36 39 54 74 44 46 48 49 62 66 72 78 76 84 89 94 99 95 100 95 91 96
90 98 96 100 91 84 88 99 98 86 90 62 59 85 46 46 46 48 52 56 59 59 56 52 86 80 64 54 60 64 74 72 71 74 94 92 84 75 88 94 96 92 90 99
91 94 97 98 97 96 96 97 97 97 55 64 51 44 46 44 45 43 52 56 59 62 60 55 81 83 47 52 65 78 76 74 69 94 87 81 82 86 83 83 81 82 76 71
95 98 99 85 85 91 87 88 90 95 96 91 49 42 38 33 43 37 42 49 57 61 65 69 69 73 56 47 69 82 88 91 97 90 81 81 96 98 92 84 73 78 64 62
93 90 100 90 69 72 78 96 88 94 71 83 70 48 46 53 56 52 44 32 36 38 50 62 65 58 55 43 41 47 74 84 86 86 84 86 97 98 87 68 63 63 63 66
97 98 98 87 85 94 75 76 93 88 69 76 81 60 54 47 44 43 38 32 33 31 29 32 36 42 39 32 34 47 53 57 81 86 88 100 97 88 87 74 68 66 60 58
94 97 98 99 99 99 95 76 80 91 80 79 94 60 60 52 52 47 45 44 39 37 40 40 34 36 37 38 37 41 53 59 69 77 82 82 80 73 71 72 70 68 67 61
97 92 97 97 90 66 73 60 74 80 70 72 85 60 55 50 51 46 44 40 35 38 41 36 35 36 37 39 39 36 37 42 51 64 74 76 73 71 70 69 68 67 65 63
96 98 96 96 94 77 66 62 68 64 56 59 68 55 60 63 65 57 44 39 38 28 32 42 40 38 38 38 36 35 35 36 42 53 62 68 71 70 72 73 72 70 66 59
88 93 90 86 75 76 88 83 71 60 56 54 51 58 62 63 61 56 48 36 33 31 32 35 41 41 39 39 38 39 41 44 52 61 69 74 75 75 74 71 65 59 57 56
94 97 93 91 76 83 84 75 92 82 74 67 70 78 82 70 70 59 57 40 37 36 40 35 38 44 46 47 46 48 52 57 61 66 70 70 69 65 62 65 68 68 66 64
92 95 80 70 69 76 70 56 61 73 67 62 65 72 69 62 59 66 54 51 55 53 50 47 45 48 50 50 50 53 56 57 57 56 57 59 61 68 72 72 71 72 71 70
84 87 87 76 58 61 52 50 49 59 68 62 65 68 65 51 46 48 60 59 60 62 54 52 54 56 55 57 60 62 65 62 62 66 69 71 69 67 70 74 80 84 85 82
73 77 89 78 70 63 86 67 65 65 91 82 78 76 67 60 68 69 52 41 46 64 63 56 54 55 63 62 65 65 65 67 65 64 67 66 69 75 83 86 88 87 84 83
86 86 85 84 72 69 66 58 60 77 98 97 80 72 77 70 68 72 74 60 40 48 70 62 60 59 64 70 64 68 68 67 66 66 67 73 83 85 87 90 87 86 87 84
79 76 76 77 75 74 68 70 77 96 95 83 70 74 81 80 74 70 71 68 58 48 71 70 64 73 76 68 72 72 69 68 68 66 68 82 93 96 89 87 89 89 90 92
78 81 85 78 88 76 72 83 82 84 81 74 77 81 81 88 86 84 83 81 75 69 69 74 73 74 75 73 71 71 72 73 69 72 93 95 86 86 95 92 94 95 92 95
97 83 76 83 92 82 77 80 80 83 82 84 88 87 90 92 92 90 88 87 86 87 86 83 84 83 78 75 76 78 79 74 85 97 90 90 96 97 92 92 92 91 94 100
92 95 95 92 97 96 88 80 82 81 86 88 88 90 90 98 91 94 96 100 95 94 85 84 88 85 84 84 85 90 88 90 97 99 99 95 92 93 94 97 97 96 98 98
97 98 97 99 94 96 89 83 79 78 80 90 96 96 93 94 95 92 85 78 77 88 95 98 97 92 90 91 91 98 96 98 100 100 99 100 99 93 95 97 97 96 96 100
Wind_Speed
9 13 16 21 19 11 21 23 22 20 25 29 25 20 19 15 27 27 21 24 24 26 20 19 33 26 23 23 28 28 30 30 31 31 31 32 34 33 34 35 36 35 35 34
12 15 16 11 20 23 8 22 26 19 26 23 34 26 25 15 27 26 29 26 27 23 21 26 34 30 28 27 25 28 29 31 30 30 30 33 32 32 31 32 32 31 30 30
14 8 10 12 18 17 19 15 23 23 24 28 20 24 24 26 25 28 27 24 23 24 27 20 29 33 30 30 30 28 29 31 30 32 30 31 32 33 34 33 32 29 38 39
10 10 9 12 14 13 10 11 18 20 27 13 28 10 33 33 25 20 28 31 29 27 22 24 29 31 31 33 33 31 32 31 31 32 34 31 27 30 31 29 30 31 31 30
6 6 12 11 11 14 13 12 16 17 25 16 20 1 11 29 32 31 31 28 34 32 28 26 30 34 34 29 33 36 36 37 34 35 36 37 32 29 30 30 28 32 33 32
1 9 9 7 9 8 11 9 17 10 21 5 17 17 13 22 39 36 31 33 30 31 33 28 31 37 38 36 31 33 37 35 37 37 40 43 41 45 41 38 31 32 34 36
17 11 8 11 13 11 14 8 5 4 2 2 21 15 8 13 20 21 24 23 23 27 25 29 39 42 41 36 35 36 36 39 37 37 38 36 42 34 29 37 33 37 41 40
8 6 6 10 12 9 16 7 1 3 4 6 15 6 16 9 10 22 23 24 21 24 25 28 31 34 37 34 34 32 35 37 39 39 36 39 39 45 37 40 25 39 39 40
4 6 5 8 7 10 15 11 5 5 4 8 8 6 17 12 12 14 26 26 27 23 23 29 35 37 35 33 30 31 32 33 37 33 29 23 21 21 25 27 23 20 22 19
8 7 4 6 7 10 5 15 2 0 3 3 6 14 7 19 20 16 18 28 30 32 29 25 23 29 32 32 31 31 30 32 31 36 35 34 27 27 28 26 27 25 27 24
7 4 6 6 6 7 14 8 6 3 3 1 4 3 10 15 13 13 16 17 19 28 31 31 30 27 32 34 32 31 38 39 38 38 39 46 43 26 23 25 26 28 28 29
2 4 7 6 3 2 11 12 9 1 5 5 4 3 10 11 10 8 12 16 15 16 19 23 27 30 32 31 28 31 33 34 35 43 43 39 37 31 20 25 28 29 30 32
3 6 6 6 6 10 12 20 13 2 4 1 2 4 9 12 11 9 8 5 9 14 15 18 20 22 24 26 26 27 30 33 32 31 31 29 27 25 27 28 27 28 34 38
3 2 3 3 4 8 16 21 18 10 2 2 6 10 14 3 1 4 4 1 4 1 10 16 18 15 15 20 21 20 21 26 33 37 33 32 29 28 29 30 31 32 34 36
1 6 6 6 4 1 7 24 25 21 13 7 7 7 4 5 4 10 9 10 9 7 8 11 13 16 17 18 19 20 21 22 24 27 30 31 31 32 31 32 32 33 34 34
1 5 4 3 3 5 5 12 21 25 25 25 24 18 15 15 13 14 13 16 16 15 12 14 13 13 14 15 16 15 15 17 19 21 23 26 28 29 29 29 28 28 28 29
4 2 2 1 3 4 2 7 13 15 17 18 18 14 18 17 13 12 10 17 15 15 13 18 17 15 13 13 13 13 14 16 18 20 21 23 23 23 22 23 24 25 27 29
4 2 2 1 3 1 2 4 10 11 9 13 15 16 18 16 14 15 15 14 13 11 11 14 17 17 16 16 16 15 14 15 16 17 18 19 20 20 21 23 24 26 28 31
2 4 3 2 2 2 3 3 6 5 6 6 5 6 8 10 11 14 16 17 12 12 11 12 15 17 17 17 16 15 15 15 15 15 16 18 20 22 24 25 27 28 30 33
6 4 0 2 2 0 4 2 3 6 4 4 5 7 9 9 8 8 10 14 17 17 15 14 16 18 18 17 15 14 12 12 13 15 17 19 22 23 25 26 28 31 32 34
1 2 6 6 3 1 3 3 4 4 4 4 6 7 8 8 7 10 12 11 13 16 18 17 15 16 17 15 14 14 14 14 15 18 19 21 23 26 28 29 31 33 35 35
2 2 3 4 2 3 1 3 4 4 6 7 9 8 8 6 5 4 5 6 8 12 17 17 16 16 16 15 15 16 17 18 19 23 24 23 25 27 29 32 33 33 33 33
3 5 2 4 4 4 3 3 4 5 8 8 8 7 7 6 4 4 4 3 3 6 11 15 16 17 16 16 17 17 19 22 24 24 24 25 27 26 27 27 28 28 28 28
5 6 6 2 4 5 7 7 7 7 8 8 8 8 7 4 5 4 6 6 5 5 7 12 15 17 19 21 22 22 23 24 24 24 24 27 27 27 27 26 25 24 22 22
9 3 4 6 8 6 8 8 7 8 8 9 10 7 4 5 6 5 6 5 7 8 11 14 15 18 19 21 22 23 24 24 25 25 25 24 22 23 23 24 24 24 22 22
9 9 9 8 12 10 10 12 11 10 10 9 8 7 8 8 8 6 6 7 8 8 9 11 12 14 17 21 23 23 24 25 29 29 24 23 22 21 20 22 23 23 24 23
Wind_Direction
296 245 226 238 218 192 219 228 217 202 210 205 199 208 191 207 217 221 212 202 202 210 207 237 229 219 225 228 231 231 233 236 234 239 241 238 240 240 240 243 249 251 253 252
293 271 223 239 218 225 224 202 204 209 211 204 215 213 199 198 201 205 215 208 201 207 220 213 236 226 227 231 238 242 240 239 239 239 243 243 242 241 244 246 246 248 253 257
275 228 189 212 229 208 213 169 191 197 197 207 202 218 222 217 229 221 212 208 205 211 214 209 230 230 231 233 237 246 248 248 243 241 240 242 239 235 237 240 246 245 256 254
272 248 192 184 213 214 201 224 186 205 198 198 198 199 220 202 213 209 209 201 197 211 210 204 229 236 233 237 241 239 247 249 247 247 240 241 238 232 229 228 229 232 230 230
240 174 168 193 194 202 218 201 190 204 200 199 194 235 224 207 219 220 217 214 202 203 200 206 218 237 244 244 247 241 243 250 247 244 249 242 232 223 230 230 231 228 228 230
186 149 152 163 197 218 186 135 183 176 183 202 198 199 229 214 221 221 221 222 215 216 202 205 216 229 235 237 240 243 239 242 244 242 242 243 240 259 241 254 238 239 239 236
115 131 126 172 193 220 190 151 133 146 177 247 187 201 225 239 211 223 214 220 221 212 216 211 216 228 239 244 244 243 240 243 243 243 248 255 261 238 251 245 244 256 246 247
84 93 119 191 200 194 212 176 202 153 143 162 176 204 208 195 206 198 201 215 218 208 215 209 213 228 238 243 243 245 238 241 242 241 243 250 254 262 269 262 254 257 265 259
73 81 118 160 146 159 202 230 30 357 228 107 183 190 203 222 224 218 192 196 201 207 219 218 212 229 240 246 246 242 245 249 247 243 241 246 255 260 263 263 266 257 267 274
97 113 186 158 190 208 175 212 262 285 119 176 162 185 219 215 227 220 208 205 198 200 206 210 217 224 237 241 236 238 238 241 240 236 232 235 245 247 252 257 270 259 266 263
117 128 158 171 180 197 205 188 222 278 295 89 141 126 156 160 165 189 198 201 202 213 214 216 222 230 233 244 249 247 243 245 245 245 247 250 251 246 251 259 261 261 260 260
181 122 154 185 214 176 203 194 204 9 358 65 342 104 182 189 190 186 203 209 217 216 214 218 219 224 238 247 251 246 243 247 247 246 251 263 238 222 243 262 261 264 264 263
110 147 133 129 144 182 203 196 191 147 263 132 125 149 176 138 125 127 128 162 213 225 225 217 221 233 241 242 241 242 242 241 245 248 251 256 265 272 268 257 259 261 262 266
12 75 46 42 129 203 207 202 196 173 226 291 74 169 170 121 31 233 187 150 101 229 231 229 237 229 224 225 231 236 241 241 242 245 249 253 256 256 257 258 262 266 268 270
67 72 54 65 89 247 231 186 193 190 186 234 130 138 144 134 183 251 282 252 275 297 270 236 225 227 230 233 236 244 249 249 244 244 248 253 257 259 261 264 266 268 268 267
60 48 92 54 64 83 139 179 197 219 226 239 253 260 258 251 260 267 268 270 266 270 265 242 233 227 227 229 236 239 241 244 247 249 251 253 257 261 264 267 267 267 267 268
78 39 253 198 153 118 176 200 206 217 224 236 246 254 259 262 261 259 240 251 252 256 252 233 236 235 236 240 245 246 246 250 252 255 257 260 262 261 261 262 266 270 274 276
119 18 349 61 160 239 217 208 223 226 228 237 246 253 257 266 262 258 259 254 253 255 250 236 231 235 239 247 253 257 257 253 252 253 256 260 263 265 269 272 274 276 278 280
170 120 305 257 227 197 207 201 197 187 249 261 269 276 274 273 268 252 245 243 251 250 247 233 228 231 239 244 250 257 258 258 257 256 256 258 262 266 271 276 278 280 284 285
245 214 60 337 301 222 221 195 201 204 214 258 292 297 292 282 264 259 250 243 239 235 239 239 232 235 239 247 257 257 245 246 255 260 262 267 271 274 275 278 280 283 287 292
3 220 228 273 279 211 264 228 193 189 185 249 298 315 313 293 281 253 261 265 239 231 232 239 243 244 243 250 252 245 245 256 263 270 274 278 279 280 280 282 283 286 287 290
205 226 224 208 227 238 274 185 215 200 247 268 291 306 321 313 301 295 285 265 246 234 229 234 236 237 245 247 242 246 256 263 270 280 284 283 283 285 287 287 285 286 288 289
238 223 170 211 196 217 242 247 262 259 265 283 293 295 300 305 275 266 266 279 262 236 227 227 230 234 237 243 251 257 266 272 276 278 279 281 285 284 292 293 288 289 291 293
251 252 196 244 197 248 260 266 271 273 276 289 287 286 281 302 291 286 265 254 250 244 233 228 229 234 241 249 258 266 270 273 274 275 277 286 279 280 287 292 290 294 295 290
233 253 235 210 230 249 254 258 278 288 284 271 273 276 279 275 282 287 297 312 264 267 257 244 243 245 249 256 260 264 268 270 273 275 280 288 291 285 287 288 289 292 294 293
221 239 234 252 244 204 263 291 300 291 271 275 271 270 277 281 278 274 287 296 290 282 277 276 270 263 263 262 267 268 270 275 273 279 282 287 293 290 290 289 289 290 290 287